NOAA NWS Hourly Roundups by Site

Regional Weather Roundup for Detroit, MI

To Select Another Site Choose from List

Select Site:  

000
ASUS43 KDTX 071310
RWRMI
MICHIGAN HOURLY REGIONAL WEATHER ROUNDUP
NATIONAL WEATHER SERVICE DETROIT/PONTIAC MI
900 AM EDT THU JUL 07 2022

NOTE: "FAIR" INDICATES FEW OR NO CLOUDS BELOW 12,000 FEET WITH NO
SIGNIFICANT WEATHER AND/OR OBSTRUCTION TO VISIBILITY.

MIZ047>049-052>055-059>063-066>070-074>076-081>083-071400-
SOUTHEAST LOWER MICHIGAN

CITY           SKY/WX    TMP DP  RH WIND       PRES   REMARKS
ADRIAN         SUNNY     67  59  75 CALM      30.08R
ALMA           CLOUDY    64  57  77 CALM      30.09S
ANN ARBOR      PTSUNNY   68  59  73 CALM      30.07S
BAD AXE        SUNNY     64  58  81 CALM      30.08R
CARO           CLOUDY    63  58  86 CALM      30.09R
DETROIT CITY   SUNNY     68  59  73 E3        30.06F
DETROIT        MOSUNNY   69  59  70 CALM      30.06F
FLINT          CLOUDY    65  57  75 NE3       30.08S
GROSSE ILE     MOSUNNY   67  65  93 NE3       30.05F
HILLSDALE      PTSUNNY   65  63  94 CALM      30.08R
HOWELL         CLOUDY    64  58  79 CALM      30.08S

CITY           SKY/WX    TMP DP  RH WIND       PRES   REMARKS
JACKSON        MOSUNNY   70  59  68 CALM      30.08S
LAMBERTVILLE   SUNNY     68  62  82 CALM      30.06S
LANSING        MOSUNNY   69  57  65 CALM      30.08S
LAPEER         CLOUDY    63  58  85 CALM      30.08S
MASON          MOSUNNY   67  59  74 CALM      30.08S
MONROE         SUNNY     67  61  83 NW5       30.06S
MT. CLEMENS    MOSUNNY   65  65  99 CALM      30.04S
PONTIAC        PTSUNNY   66  58  75 CALM      30.07S
PORT HOPE        N/A     65  29  25 N3        30.07R
PORT HURON     SUNNY     66  61  82 CALM      30.06F
TRI CITIES     CLOUDY    65  56  72 NE3       30.09S
MIDLAND        CLOUDY    64  57  77 CALM      30.09R
TROY           SUNNY     66  57  73 CALM      30.09R
SAGINAW HB     PTSUNNY   63  55  74 CALM      30.09R
$$
MIZ043>046-050>051-056>058-064>065-071>073-077>080-071400-
SOUTHWEST LOWER MICHIGAN

CITY           SKY/WX    TMP DP  RH WIND       PRES   REMARKS
BATTLE CREEK   PTSUNNY   67  63  87 SE3       30.08S
BENTON HARBOR  SUNNY     73  67  81 E6        30.05S
BIG RAPIDS     CLOUDY    66  56  71 S7        30.08S
COLDWATER      SUNNY     69  63  80 SE3       30.08S
FREMONT        CLOUDY    66  57  72 SE5       30.06F
HOLLAND        MOSUNNY   68  62  81 SE8       30.05F
GRAND RAPIDS   PTSUNNY   66  60  81 SE6       30.07F
IONIA          CLOUDY    65  60  83 CALM      30.07F
KALAMAZOO      SUNNY     70  63  78 CALM      30.07S
LUDINGTON      PTSUNNY   68  59  74 SE5       30.06S
MARSHALL       MOSUNNY   67  63  89 CALM      30.07F
MOUNT PLEASANT CLOUDY    64  56  75 CALM      30.08S
MUSKEGON       PTSUNNY   71  60  68 SE6       30.06S
SOUTH HAVEN    SUNNY     70  65  85 SE3       30.05F
$$
MIZ016>042-071400-
NORTHERN LOWER MICHIGAN

CITY           SKY/WX    TMP DP  RH WIND       PRES   REMARKS
ALPENA         SUNNY     64  57  78 SE5       30.08S
BEAVER ISLAND  SUNNY     67  62  85 S3        30.04R
BELLAIRE       SUNNY     68  58  70 S5        30.06F
CADILLAC       CLOUDY    64  56  75 S5        30.08S
CHARLEVOIX     SUNNY     67  60  78 S3        30.05F
FRANKFORT      SUNNY     69  58  69 SE5       30.06R
GAYLORD        PTSUNNY   65  53  65 SW9       30.09R
GRAYLING       CLOUDY    63  63 100 SW5       30.08S
HARBOR SPRINGS SUNNY     65  58  77 CALM      30.06S
HOUGHTON LAKE  CLOUDY    63  55  75 S6        30.10R
MANISTEE       SUNNY     68  60  75 CALM      30.06S
OSCODA         CLOUDY    63  58  86 CALM      30.08S
PELLSTON       SUNNY     67  59  75 S5        30.05F
ROGERS CITY    SUNNY     64  56  74 S7        30.07F
TRAVERSE CITY  MOSUNNY   71  57  61 S7        30.05R
$$
MIZ007>008-015-071400-
EASTERN UPPER MICHIGAN

CITY           SKY/WX    TMP DP  RH WIND       PRES   REMARKS
KINROSS        MOSUNNY   61  57  87 S5        30.05S
MACKINAC ISLAN SUNNY     62  62  99 S3        30.05S
NEWBERRY       CLOUDY    60  58  94 S3        30.03S
S. S. MARIE    CLOUDY    56  54  93 SE3       30.04S FOG
$$
MIZ004>006-011>014-085-071400-
CENTRAL UPPER MICHIGAN

CITY           SKY/WX    TMP DP  RH WIND       PRES   REMARKS
MANISTIQUE     PTSUNNY   62  57  85 S5        30.04R
ESCANABA       MOSUNNY   64  57  78 SW7       30.04R
MENOMINEE      MOSUNNY   64  59  83 CALM      30.06S
SAWYER-GWINN   CLOUDY    57  50  77 SW7       30.04R
MUNISING         N/A     57  52  83 VRB6      30.02R
$$
MIZ001>003-009>011-084-071400-
WESTERN UPPER MICHIGAN

CITY           SKY/WX    TMP DP  RH WIND       PRES   REMARKS
IRON MOUNTAIN  SUNNY     65  56  72 S5        30.03S
HOUGHTON       SUNNY     61  53  75 CALM      29.99S
COPPER HARBOR    N/A     61  49  64 VRB5      29.97F
IRONWOOD       SUNNY     69  65  86 SW9       30.02F
$$

ABBREVIATIONS USED IN REMARKS
   TC - TEMPERATURE IN CELSIUS
  WCI - WIND CHILL INDEX
   HX - HEAT INDEX
  VSB - VISIBILITY



 

View Past Reports for Detroit, MI.

Products Courtesy of NOAA-NWS
NWS Information Parsing Script by Ken True at Saratoga Weather - Script by SE Lincoln Weather.